Location: Unspecified
(40.7945°N, 111.1337°W)
Time: 04:28:21
(UTC-06:00)

Cosmos 1674 - Pass Details

Date: 23 March 2019
Orbit: 497 x 518 km, 82.5° (Epoch: 24 April)

Event Time Altitude Azimuth Distance (km) Brightness Sun altitude
Rises 20:13:47 0° 16° (NNE) 2,606 6.2 -7.2°
Reaches altitude 10° 20:17:26 10° 53° (NE) 1,720 4.9 -7.9°
Maximum altitude 20:18:33 11° 70° (ENE) 1,653 4.7 -8.1°
Enters shadow 20:19:33 10° 86° (E) 1,707 4.7 -8.3°
